Location: Glendale
(37.4556°N, 88.6714°W)
Time: 23:30:06
(UTC+00:00)

COSMO-SKYMED 1 - Pass Details

Date: 08 December 2019
Orbit: 621 x 623 km, 97.9° (Epoch: 18 January)

Event Time Altitude Azimuth Distance (km) Brightness Sun altitude
Rises 11:32:01 0° 179° (S) 2,887 6.2 -16.3°
Reaches altitude 10° 11:34:15 10° 185° (S) 1,986 5.3 -15.9°
Maximum altitude 11:38:26 49° 260° (W) 806 2.8 -15.1°
Enters shadow 11:42:18 12° 335° (NNW) 1,860 4.6 -14.4°
